| time (UTC) | temp C | wind direction | speed KPH | gust KPH | rain 1hr cm | rain 24hr cm | rain mn cm | humidity % | barometer mb |
| 20260504003205 | 22 | 288 | 0.0 | 9.7 | 0.00 | 0.00 | 0.00 | 38 | 1020.8 |
| 20260504002605 | 22 | 311 | 0.0 | 11.3 | 0.00 | 0.00 | 0.00 | 38 | 1020.8 |
| 20260504002017 | 23 | 306 | 0.0 | 11.3 | 0.00 | 0.00 | 0.00 | 38 | 1020.7 |
| 20260504001405 | 22 | 270 | 4.8 | 16.1 | 0.00 | 0.00 | 0.00 | 37 | 1020.7 |
| 20260504000830 | 23 | 287 | 3.2 | 14.5 | 0.00 | 0.00 | 0.00 | 38 | 1020.7 |
| 20260504000205 | 23 | 293 | 4.8 | 12.9 | 0.00 | 0.00 | 0.00 | 37 | 1020.6 |
| 20260503235617 | 23 | 291 | 0.0 | 12.9 | 0.00 | 0.00 | 0.00 | 38 | 1020.7 |
| 20260503235017 | 23 | 278 | 3.2 | 6.4 | 0.00 | 0.00 | 0.00 | 38 | 1020.7 |
| 20260503234429 | 23 | 336 | 0.0 | 12.9 | 0.00 | 0.00 | 0.00 | 37 | 1020.8 |
| 20260503233805 | 23 | 354 | 0.0 | 14.5 | 0.00 | 0.00 | 0.00 | 39 | 1020.9 |
| 20260503233204 | 23 | 267 | 4.8 | 12.9 | 0.00 | 0.00 | 0.00 | 38 | 1020.9 |
| 20260503232605 | 23 | 259 | 0.0 | 19.3 | 0.00 | 0.00 | 0.00 | 39 | 1020.9 |
| 20260503232005 | 23 | 277 | 0.0 | 20.9 | 0.00 | 0.00 | 0.00 | 38 | 1020.9 |
| 20260503231430 | 23 | 326 | 3.2 | 9.7 | 0.00 | 0.00 | 0.00 | 40 | 1021.0 |
| 20260503230817 | 23 | 259 | 4.8 | 19.3 | 0.00 | 0.00 | 0.00 | 36 | 1021.1 |
| 20260503230242 | 23 | 286 | 4.8 | 14.5 | 0.00 | 0.00 | 0.00 | 38 | 1021.0 |
| 20260503225629 | 23 | 16 | 0.0 | 16.1 | 0.00 | 0.00 | 0.00 | 41 | 1021.0 |
| 20260503225004 | 22 | 290 | 3.2 | 20.9 | 0.00 | 0.00 | 0.00 | 40 | 1021.1 |
| 20260503224405 | 22 | 295 | 0.0 | 17.7 | 0.00 | 0.00 | 0.00 | 41 | 1021.2 |
| 20260503223805 | 22 | 243 | 4.8 | 17.7 | 0.00 | 0.00 | 0.00 | 41 | 1021.2 |
| 20260503223205 | 23 | 296 | 4.8 | 20.9 | 0.00 | 0.00 | 0.00 | 43 | 1021.3 |
| 20260503222605 | 23 | 275 | 3.2 | 14.5 | 0.00 | 0.00 | 0.00 | 44 | 1021.4 |
| 20260503222030 | 22 | 36 | 3.2 | 11.3 | 0.00 | 0.00 | 0.00 | 47 | 1021.4 |
| 20260503221405 | 23 | 296 | 0.0 | 14.5 | 0.00 | 0.00 | 0.00 | 44 | 1021.5 |
| 20260503220805 | 23 | 15 | 3.2 | 22.5 | 0.00 | 0.00 | 0.00 | 45 | 1021.7 |
| 20260503220205 | 22 | 259 | 0.0 | 17.7 | 0.00 | 0.00 | 0.00 | 46 | 1021.7 |
| 20260503215605 | 22 | 301 | 3.2 | 25.7 | 0.00 | 0.00 | 0.00 | 46 | 1021.8 |
| 20260503215017 | 22 | 273 | 6.4 | 17.7 | 0.00 | 0.00 | 0.00 | 44 | 1021.8 |
| 20260503214430 | 22 | 314 | 0.0 | 17.7 | 0.00 | 0.00 | 0.00 | 48 | 1021.9 |
| 20260503213805 | 22 | 290 | 0.0 | 17.7 | 0.00 | 0.00 | 0.00 | 49 | 1022.1 |
| 20260503213205 | 22 | 294 | 3.2 | 20.9 | 0.00 | 0.00 | 0.00 | 48 | 1022.1 |
| 20260503212605 | 22 | 288 | 3.2 | 17.7 | 0.00 | 0.00 | 0.00 | 49 | 1022.3 |
| 20260503212005 | 22 | 29 | 0.0 | 16.1 | 0.00 | 0.00 | 0.00 | 51 | 1022.3 |
| 20260503211405 | 21 | 301 | 4.8 | 17.7 | 0.00 | 0.00 | 0.00 | 51 | 1022.3 |
| 20260503210805 | 21 | 296 | 0.0 | 19.3 | 0.00 | 0.00 | 0.00 | 51 | 1022.4 |
| 20260503210205 | 21 | 280 | 0.0 | 19.3 | 0.00 | 0.00 | 0.00 | 53 | 1022.5 |
| 20260503205605 | 21 | 354 | 3.2 | 22.5 | 0.00 | 0.00 | 0.00 | 51 | 1022.6 |
| 20260503205004 | 21 | 322 | 3.2 | 20.9 | 0.00 | 0.00 | 0.00 | 53 | 1022.8 |
| 20260503204405 | 21 | 347 | 1.6 | 16.1 | 0.00 | 0.00 | 0.00 | 52 | 1022.9 |
| 20260503203805 | 21 | 332 | 3.2 | 24.1 | 0.00 | 0.00 | 0.00 | 54 | 1023.0 |
| 20260503203205 | 21 | 16 | 3.2 | 22.5 | 0.00 | 0.00 | 0.00 | 55 | 1023.0 |
| 20260503202605 | 21 | 316 | 4.8 | 20.9 | 0.00 | 0.00 | 0.00 | 57 | 1023.3 |
| 20260503202005 | 20 | 306 | 9.7 | 22.5 | 0.00 | 0.00 | 0.00 | 55 | 1023.3 |
| 20260503201405 | 21 | 270 | 6.4 | 20.9 | 0.00 | 0.00 | 0.00 | 53 | 1023.4 |
| 20260503200805 | 20 | 292 | 3.2 | 20.9 | 0.00 | 0.00 | 0.00 | 56 | 1023.5 |
| 20260503200206 | 20 | 286 | 3.2 | 24.1 | 0.00 | 0.00 | 0.00 | 56 | 1023.6 |
| 20260503195605 | 20 | 300 | 4.8 | 22.5 | 0.00 | 0.00 | 0.00 | 57 | 1023.7 |
| 20260503195005 | 20 | 285 | 4.8 | 24.1 | 0.00 | 0.00 | 0.00 | 58 | 1023.8 |
| 20260503194405 | 20 | 290 | 6.4 | 19.3 | 0.00 | 0.00 | 0.00 | 58 | 1023.9 |
| 20260503193805 | 20 | 339 | 9.7 | 25.7 | 0.00 | 0.00 | 0.00 | 57 | 1024.0 |
| 20260503193229 | 20 | 264 | 4.8 | 20.9 | 0.00 | 0.00 | 0.00 | 58 | 1023.9 |
| 20260503192605 | 20 | 301 | 6.4 | 20.9 | 0.00 | 0.00 | 0.00 | 60 | 1024.2 |
| 20260503192005 | 19 | 253 | 3.2 | 24.1 | 0.00 | 0.00 | 0.00 | 60 | 1024.2 |
| 20260503191405 | 20 | 281 | 4.8 | 20.9 | 0.00 | 0.00 | 0.00 | 58 | 1024.4 |
| 20260503190805 | 20 | 332 | 4.8 | 22.5 | 0.00 | 0.00 | 0.00 | 57 | 1024.5 |
| 20260503190205 | 19 | 279 | 3.2 | 17.7 | 0.00 | 0.00 | 0.00 | 58 | 1024.6 |
| 20260503185605 | 20 | 298 | 4.8 | 17.7 | 0.00 | 0.00 | 0.00 | 60 | 1024.6 |
| 20260503185030 | 18 | 10 | 4.8 | 14.5 | 0.00 | 0.00 | 0.00 | 62 | 1024.6 |
| 20260503184405 | 18 | 271 | 3.2 | 16.1 | 0.00 | 0.00 | 0.00 | 63 | 1024.8 |
| 20260503183805 | 18 | 344 | 3.2 | 16.1 | 0.00 | 0.00 | 0.00 | 64 | 1024.9 |
| 20260503183205 | 18 | 284 | 6.4 | 16.1 | 0.00 | 0.00 | 0.00 | 63 | 1025.0 |
| 20260503182605 | 18 | 318 | 3.2 | 22.5 | 0.00 | 0.00 | 0.00 | 65 | 1025.0 |
| 20260503182006 | 18 | 309 | 3.2 | 19.3 | 0.00 | 0.00 | 0.00 | 64 | 1025.1 |
| 20260503181405 | 18 | 328 | 0.0 | 19.3 | 0.00 | 0.00 | 0.00 | 64 | 1025.1 |
| 20260503180805 | 18 | 280 | 4.8 | 20.9 | 0.00 | 0.00 | 0.00 | 63 | 1025.2 |
| 20260503180205 | 17 | 319 | 6.4 | 19.3 | 0.00 | 0.00 | 0.00 | 66 | 1025.3 |
| 20260503175605 | 18 | 331 | 3.2 | 22.5 | 0.00 | 0.00 | 0.00 | 64 | 1025.3 |
| 20260503175005 | 18 | 318 | 6.4 | 19.3 | 0.00 | 0.00 | 0.00 | 68 | 1025.4 |
| 20260503174405 | 17 | 354 | 3.2 | 16.1 | 0.00 | 0.00 | 0.00 | 71 | 1025.4 |
| 20260503173830 | 16 | 319 | 3.2 | 19.3 | 0.00 | 0.00 | 0.00 | 71 | 1025.5 |
| 20260503173205 | 16 | 279 | 4.8 | 19.3 | 0.00 | 0.00 | 0.00 | 71 | 1025.5 |
| 20260503172605 | 16 | 309 | 3.2 | 17.7 | 0.00 | 0.00 | 0.00 | 70 | 1025.6 |
| 20260503172005 | 16 | 324 | 0.0 | 16.1 | 0.00 | 0.00 | 0.00 | 70 | 1025.6 |
| 20260503171405 | 16 | 331 | 6.4 | 12.9 | 0.00 | 0.00 | 0.00 | 70 | 1025.6 |
| 20260503170817 | 16 | 329 | 3.2 | 14.5 | 0.00 | 0.00 | 0.00 | 72 | 1025.6 |
| 20260503170205 | 16 | 278 | 3.2 | 19.3 | 0.00 | 0.00 | 0.00 | 72 | 1025.7 |
| 20260503150829 | 15 | 257 | 3.2 | 12.9 | 0.00 | 0.00 | 0.00 | 74 | 1025.6 |
| 20260503150205 | 15 | 276 | 8.0 | 9.7 | 0.00 | 0.00 | 0.00 | 74 | 1025.6 |
| 20260503140205 | 13 | 308 | 0.0 | 0.0 | 0.00 | 0.00 | 0.00 | 80 | 1025.1 |
| 20260503131405 | 12 | 283 | 0.0 | 0.0 | 0.00 | 0.00 | 0.00 | 81 | 1024.8 |
| 20260503130830 | 12 | 334 | 0.0 | 0.0 | 0.00 | 0.00 | 0.00 | 81 | 1024.7 |
| 20260503130205 | 12 | 331 | 0.0 | 4.8 | 0.00 | 0.00 | 0.00 | 81 | 1024.7 |
| 20260503120205 | 12 | 86 | 0.0 | 0.0 | 0.00 | 0.00 | 0.00 | 79 | 1023.9 |
| 20260503110805 | 12 | 86 | 0.0 | 0.0 | 0.00 | 0.00 | 0.00 | 77 | 1023.9 |
| 20260503110205 | 12 | 86 | 0.0 | 0.0 | 0.00 | 0.00 | 0.00 | 77 | 1023.9 |
| 20260503100205 | 12 | 85 | 1.6 | 6.4 | 0.00 | 0.00 | 0.00 | 77 | 1023.9 |
| 20260503090205 | 11 | 74 | 3.2 | 8.0 | 0.00 | 0.00 | 0.00 | 78 | 1024.1 |
| 20260503081405 | 11 | 83 | 3.2 | 6.4 | 0.00 | 0.00 | 0.00 | 79 | 1024.2 |
| 20260503080805 | 11 | 97 | 3.2 | 4.8 | 0.00 | 0.00 | 0.00 | 79 | 1024.2 |
| 20260503080205 | 11 | 90 | 3.2 | 6.4 | 0.00 | 0.00 | 0.00 | 79 | 1024.3 |
| 20260503072605 | 10 | 88 | 4.8 | 9.7 | 0.00 | 0.00 | 0.00 | 80 | 1024.6 |
| 20260503072005 | 10 | 80 | 4.8 | 9.7 | 0.00 | 0.00 | 0.00 | 80 | 1024.6 |
| 20260503071405 | 10 | 86 | 4.8 | 9.7 | 0.00 | 0.00 | 0.00 | 80 | 1024.7 |
| 20260503070805 | 10 | 63 | 3.2 | 8.0 | 0.00 | 0.00 | 0.00 | 80 | 1024.7 |
| 20260503070229 | 10 | 78 | 1.6 | 8.0 | 0.00 | 0.00 | 0.00 | 81 | 1024.6 |
| 20260503060205 | 8 | 52 | 0.0 | 3.2 | 0.00 | 0.00 | 0.00 | 83 | 1024.7 |
| 20260503054417 | 8 | 79 | 4.8 | 8.0 | 0.00 | 0.00 | 0.00 | 83 | 1024.7 |
| 20260503053830 | 8 | 76 | 3.2 | 9.7 | 0.00 | 0.00 | 0.00 | 82 | 1024.7 |
| 20260503053205 | 9 | 58 | 4.8 | 12.9 | 0.00 | 0.00 | 0.00 | 82 | 1024.7 |
| 20260503052017 | 9 | 84 | 9.7 | 12.9 | 0.00 | 0.00 | 0.00 | 82 | 1024.6 |
| 20260503051405 | 9 | 87 | 3.2 | 9.7 | 0.00 | 0.00 | 0.00 | 83 | 1024.4 |
| 20260503050804 | 9 | 73 | 3.2 | 9.7 | 0.00 | 0.00 | 0.00 | 82 | 1024.3 |
| 20260503050205 | 9 | 78 | 4.8 | 9.7 | 0.00 | 0.00 | 0.00 | 82 | 1024.2 |
| 20260503045605 | 9 | 73 | 3.2 | 11.3 | 0.00 | 0.00 | 0.00 | 82 | 1024.2 |
| 20260503044429 | 9 | 63 | 3.2 | 11.3 | 0.00 | 0.00 | 0.00 | 82 | 1024.2 |
| 20260503043830 | 9 | 72 | 4.8 | 11.3 | 0.00 | 0.00 | 0.00 | 82 | 1024.2 |
| 20260503042605 | 10 | 65 | 6.4 | 14.5 | 0.00 | 0.00 | 0.00 | 81 | 1024.2 |
| 20260503041407 | 10 | 59 | 9.7 | 12.9 | 0.00 | 0.00 | 0.00 | 81 | 1024.1 |
| 20260503040807 | 10 | 83 | 9.7 | 14.5 | 0.00 | 0.00 | 0.00 | 81 | 1024.1 |
| 20260503040205 | 10 | 58 | 6.4 | 12.9 | 0.00 | 0.00 | 0.00 | 81 | 1024.0 |
| 20260503035605 | 10 | 68 | 4.8 | 12.9 | 0.00 | 0.00 | 0.00 | 81 | 1023.9 |
| 20260503035005 | 10 | 79 | 8.0 | 14.5 | 0.00 | 0.00 | 0.00 | 81 | 1023.8 |
| 20260503034405 | 10 | 62 | 8.0 | 16.1 | 0.00 | 0.00 | 0.00 | 80 | 1023.7 |
| 20260503033806 | 11 | 102 | 11.3 | 14.5 | 0.00 | 0.00 | 0.00 | 80 | 1023.7 |
| 20260503033205 | 11 | 46 | 3.2 | 11.3 | 0.00 | 0.00 | 0.00 | 80 | 1023.7 |
| 20260503032605 | 10 | 64 | 4.8 | 11.3 | 0.00 | 0.00 | 0.00 | 80 | 1023.7 |
| 20260503032005 | 11 | 112 | 0.0 | 11.3 | 0.00 | 0.00 | 0.00 | 80 | 1023.6 |
| 20260503031406 | 11 | 76 | 1.6 | 12.9 | 0.00 | 0.00 | 0.00 | 79 | 1023.5 |
| 20260503030806 | 11 | 90 | 4.8 | 11.3 | 0.00 | 0.00 | 0.00 | 79 | 1023.5 |
| 20260503030205 | 11 | 80 | 3.2 | 16.1 | 0.00 | 0.00 | 0.00 | 79 | 1023.5 |
| 20260503025605 | 11 | 75 | 6.4 | 17.7 | 0.00 | 0.00 | 0.00 | 79 | 1023.5 |
| 20260503025006 | 11 | 98 | 9.7 | 17.7 | 0.00 | 0.00 | 0.00 | 78 | 1023.4 |
| 20260503023830 | 11 | 110 | 9.7 | 20.9 | 0.00 | 0.00 | 0.00 | 78 | 1023.3 |
| 20260503023205 | 11 | 102 | 9.7 | 17.7 | 0.00 | 0.00 | 0.00 | 78 | 1023.2 |
| 20260503022630 | 11 | 94 | 9.7 | 17.7 | 0.00 | 0.00 | 0.00 | 78 | 1023.2 |
| 20260503022005 | 11 | 106 | 11.3 | 16.1 | 0.00 | 0.00 | 0.00 | 78 | 1023.0 |
| 20260503021405 | 11 | 130 | 6.4 | 11.3 | 0.00 | 0.00 | 0.00 | 77 | 1023.0 |
| 20260503020806 | 11 | 97 | 4.8 | 11.3 | 0.00 | 0.00 | 0.00 | 76 | 1022.8 |
| 20260503020205 | 12 | 113 | 6.4 | 12.9 | 0.00 | 0.00 | 0.00 | 75 | 1022.8 |
| 20260503015629 | 12 | 97 | 4.8 | 14.5 | 0.00 | 0.00 | 0.00 | 75 | 1022.6 |
| 20260503015005 | 12 | 97 | 6.4 | 6.4 | 0.00 | 0.00 | 0.00 | 75 | 1022.4 |
| 20260503014405 | 12 | 99 | 0.0 | 6.4 | 0.00 | 0.00 | 0.00 | 73 | 1022.3 |
| 20260503013805 | 12 | 109 | 4.8 | 8.0 | 0.00 | 0.00 | 0.00 | 73 | 1022.1 |
| 20260503013205 | 12 | 78 | 0.0 | 14.5 | 0.00 | 0.00 | 0.00 | 72 | 1022.0 |
| 20260503012605 | 13 | 72 | 4.8 | 12.9 | 0.00 | 0.00 | 0.00 | 72 | 1021.9 |
| 20260503012005 | 13 | 113 | 6.4 | 14.5 | 0.00 | 0.00 | 0.00 | 72 | 1021.8 |
| 20260503011405 | 13 | 95 | 6.4 | 17.7 | 0.00 | 0.00 | 0.00 | 71 | 1021.7 |
| 20260503010807 | 13 | 105 | 9.7 | 16.1 | 0.00 | 0.00 | 0.00 | 70 | 1021.6 |
| 20260503010230 | 13 | 106 | 6.4 | 14.5 | 0.00 | 0.00 | 0.00 | 69 | 1021.7 |
| 20260503005605 | 13 | 91 | 4.8 | 16.1 | 0.00 | 0.00 | 0.00 | 68 | 1021.5 |
| 20260503005005 | 14 | 111 | 9.7 | 14.5 | 0.00 | 0.00 | 0.00 | 68 | 1021.5 |
| 20260503004405 | 14 | 124 | 4.8 | 12.9 | 0.00 | 0.00 | 0.00 | 67 | 1021.5 |
| 20260503003805 | 15 | 127 | 6.4 | 12.9 | 0.00 | 0.00 | 0.00 | 66 | 1021.5 |